Location: ????????
(56.1167°N, 38.6333°E)
Time: 21:17:15
(UTC+00:00)

Cosmos 2058 - Pass Details

Date: 18 November 2025
Orbit: 529 x 541 km, 82.5° (Epoch: 06 December)

Event Time Altitude Azimuth Distance (km) Brightness Sun altitude
Rises 15:50:24 0° 342° (NNW) 2,707 6.5 -21.5°
Reaches altitude 10° 15:52:39 10° 334° (NNW) 1,813 5.7 -21.8°
Maximum altitude 15:56:20 37° 267° (W) 855 4.3 -22.3°
Drops below altitude 10° 16:00:00 10° 200° (SSW) 1,805 5.7 -22.8°
Sets 16:02:15 0° 192° (SSW) 2,693 6.5 -23.1°
